Location: Sungai Ketit
(2.6833°N, 113.2333°E)
Time: 19:55:59
(UTC+00:00)

YAOGAN 3 - Pass Details

Date: 23 May 2024
Orbit: 612 x 614 km, 97.9° (Epoch: 19 June)

Event Time Altitude Azimuth Distance (km) Brightness Sun altitude
Exits shadow 11:34:20 - 168° (SSE) 2,027 6.9 -15.4°
Reaches altitude 10° 11:34:28 10° 168° (SSE) 1,971 6.8 -15.5°
Maximum altitude 11:38:45 88° 86° (E) 618 4.5 -16.5°
Drops below altitude 10° 11:43:02 10° 349° (N) 1,964 7.6 -17.4°
Sets 11:45:13 0° 349° (N) 2,866 8.5 -17.9°
